Location: Mannheim
(49.4880°N, 8.4650°E)
Time: 02:21:40
(UTC+01:00)

ISS - Pass Details

Date: 25 January 2023
Orbit: 413 x 419 km, 51.6° (Epoch: 30 January)

Event Time Altitude Azimuth Distance (km) Brightness Sun altitude
Rises 19:18:44 0° 279° (W) 2,369 1.5 -20.7°
Reaches altitude 10° 19:20:51 10° 284° (WNW) 1,505 0.1 -21.0°
Enters shadow 19:23:43 52° 326° (NW) 533 -3.2 -21.5°
